Location: Anglesey
(53.1800°N, 4.2200°W)
Time: 03:26:48
(UTC+01:00)

Envisat - Visible Passes

Search period start: 25 September 2017 00:00
Search period end: 05 October 2017 00:00
Orbit: 764 x 766 km, 98.2° (Epoch: 24 September)

Date Brightness Start Highest point End Pass type
(mag) Time Alt. Az. Time Alt. Az. Time Alt. Az.
25 Sep 3.1 20:21:19 10° SSE 20:26:18 58° ENE 20:31:18 10° N visible
25 Sep 4.9 22:01:29 10° SSW 22:05:40 26° W 22:09:54 10° NW visible
26 Sep 3.8 19:45:19 10° ESE 19:49:47 32° ENE 19:54:17 10° N visible
26 Sep 3.9 21:23:46 10° S 21:28:40 48° W 21:33:37 10° NNW visible
27 Sep 2.9 20:46:46 10° SSE 20:51:51 89° ENE 20:56:59 10° NNW visible
27 Sep 5.5 22:28:27 10° SW 22:31:37 16° W 22:34:47 10° NW visible
28 Sep 3.3 20:10:22 10° SE 20:15:13 48° ENE 20:20:07 10° N visible
28 Sep 4.6 21:49:59 10° SSW 21:54:28 31° W 21:58:59 10° NNW visible
29 Sep 4.0 19:34:33 10° ESE 19:38:47 27° ENE 19:43:03 10° N visible
29 Sep 3.5 21:12:53 12° S 21:17:30 59° WSW 21:22:33 10° NNW visible
30 Sep 2.9 20:35:55 11° SSE 20:40:45 75° ENE 20:45:52 10° NNW visible
30 Sep 5.3 22:16:41 10° SW 22:20:21 20° W 22:24:03 10° NW visible
01 Oct 3.5 19:59:27 10° SE 20:04:11 40° ENE 20:08:56 10° N visible
01 Oct 4.3 21:39:10 13° SSW 21:43:16 37° W 21:48:00 10° NNW visible
02 Oct 4.2 19:23:50 10° ESE 19:27:48 23° ENE 19:31:46 10° N visible
02 Oct 3.2 21:02:11 15° S 21:06:23 71° WSW 21:11:29 10° NNW visible
02 Oct 5.7 22:44:17 10° WSW 22:46:21 12° W 22:48:26 10° WNW visible
03 Oct 3.0 20:25:13 13° SSE 20:29:41 62° ENE 20:34:43 10° N visible
03 Oct 5.0 22:05:26 12° SW 22:09:07 24° W 22:13:13 10° NW visible
04 Oct 3.7 19:48:37 10° SE 19:53:10 34° ENE 19:57:44 10° N visible
04 Oct 4.0 21:28:27 17° SSW 21:32:05 45° W 21:36:59 10° NNW visible
